EW4986 Weather Reports


Display with metric or nautical units.
time (UTC)temp
F
wind
direction
speed
MPH
gust
MPH
rain 1hr
in
rain 24hr
in
rain mn
in
humidity
%
barometer
mb
20260906234641 94 217 0.0 4.0 0.00 0.00 0.00 22 1016.1
20260906234148 94 315 1.0 4.0 0.00 0.00 0.00 22 1016.2
20260906234142 94 236 0.0 4.0 0.00 0.00 0.00 22 1016.2
20260906233141 95 300 1.0 8.0 0.00 0.00 0.00 21 1016.2
20260906232639 95 201 1.0 8.0 0.00 0.00 0.00 21 1016.2
20260906232137 95 299 1.0 4.0 0.00 0.00 0.00 21 1016.3
20260906231638 95 196 2.0 6.0 0.00 0.00 0.00 22 1016.2
20260906231136 95 146 1.0 6.0 0.00 0.00 0.00 20 1016.2
20260906230637 95 158 0.0 5.0 0.00 0.00 0.00 21 1016.3
20260906230142 94 100 2.0 6.0 0.00 0.00 0.00 20 1016.5
20260906230138 95 217 1.0 6.0 0.00 0.00 0.00 21 1016.3
20260906225137 95 159 2.0 9.0 0.00 0.00 0.00 20 1016.3
20260906224642 95 107 1.0 3.0 0.00 0.00 0.00 21 1016.2
20260906224636 96 181 1.0 9.0 0.00 0.00 0.00 20 1016.3
20260906224309 94 198 1.0 5.0 0.00 0.00 0.00 21 1016.3
20260906223136 95 76 2.0 5.0 0.00 0.00 0.00 20 1016.5
20260906222635 95 105 1.0 4.0 0.00 0.00 0.00 20 1016.5
20260906222135 95 158 1.0 6.0 0.00 0.00 0.00 20 1016.6
20260906221636 95 258 1.0 6.0 0.00 0.00 0.00 20 1016.6
20260906221133 96 212 1.0 3.0 0.00 0.00 0.00 20 1016.6
20260906220631 96 212 1.0 3.0 0.00 0.00 0.00 20 1016.7
20260906220132 95 134 1.0 7.0 0.00 0.00 0.00 20 1016.7
20260906215630 94 290 3.0 11.0 0.00 0.00 0.00 21 1016.8
20260906215134 95 311 2.0 10.0 0.00 0.00 0.00 20 1017.0
20260906215129 94 321 3.0 11.0 0.00 0.00 0.00 20 1017.0
20260906214128 96 314 1.0 7.0 0.00 0.00 0.00 20 1017.0
20260906213629 95 160 1.0 6.0 0.00 0.00 0.00 20 1017.3
20260906213128 95 307 1.0 3.0 0.00 0.00 0.00 20 1017.4
20260906212629 95 312 1.0 3.0 0.00 0.00 0.00 19 1017.5
20260906212129 95 297 1.0 4.0 0.00 0.00 0.00 20 1017.6
20260906211629 94 295 2.0 5.0 0.00 0.00 0.00 19 1017.6
20260906211135 95 292 1.0 4.0 0.00 0.00 0.00 19 1017.9
20260906211128 94 124 2.0 5.0 0.00 0.00 0.00 20 1017.9
20260906210129 96 330 1.0 5.0 0.00 0.00 0.00 19 1017.9
20260906205635 95 220 1.0 3.0 0.00 0.00 0.00 20 1018.0
20260906205629 97 172 0.0 5.0 0.00 0.00 0.00 18 1018.0
20260906204629 94 131 2.0 6.0 0.00 0.00 0.00 18 1018.1
20260906204128 94 108 2.0 6.0 0.00 0.00 0.00 18 1018.2
20260906203629 95 319 1.0 6.0 0.00 0.00 0.00 18 1018.3
20260906203129 96 290 1.0 4.0 0.00 0.00 0.00 18 1018.4
20260906202629 96 302 0.0 2.0 0.00 0.00 0.00 18 1018.4
20260906202132 95 176 1.0 4.0 0.00 0.00 0.00 18 1018.7
20260906202126 96 296 1.0 4.0 0.00 0.00 0.00 18 1018.6
20260906201126 95 90 1.0 4.0 0.00 0.00 0.00 18 1018.8
20260906200627 95 157 0.0 2.0 0.00 0.00 0.00 19 1018.8
20260906200131 94 179 0.0 2.0 0.00 0.00 0.00 18 1018.9
20260906200126 95 281 0.0 2.0 0.00 0.00 0.00 18 1018.8
20260906195128 93 166 0.0 2.0 0.00 0.00 0.00 19 1018.9
20260906194627 92 240 1.0 3.0 0.00 0.00 0.00 20 1019.0
20260906194249 92 353 1.0 4.0 0.00 0.00 0.00 19 1019.3
20260906194130 92 295 1.0 3.0 0.00 0.00 0.00 20 1019.1
20260906194125 92 340 1.0 3.0 0.00 0.00 0.00 19 1019.0
20260906193124 92 314 1.0 4.0 0.00 0.00 0.00 20 1019.3
20260906192125 91 0 1.0 7.0 0.00 0.00 0.00 20 1019.4
20260906191622 91 80 1.0 7.0 0.00 0.00 0.00 20 1019.5
20260906191124 91 79 1.0 4.0 0.00 0.00 0.00 19 1019.6
20260906190628 92 295 1.0 3.0 0.00 0.00 0.00 21 1019.7
20260906190622 92 232 0.0 2.0 0.00 0.00 0.00 20 1019.6
20260906185623 92 134 1.0 4.0 0.00 0.00 0.00 20 1019.8
20260906185123 91 226 1.0 4.0 0.00 0.00 0.00 21 1019.8
20260906184622 91 240 1.0 4.0 0.00 0.00 0.00 22 1020.0
20260906184122 91 148 2.0 4.0 0.00 0.00 0.00 22 1020.0
20260906183623 91 357 1.0 4.0 0.00 0.00 0.00 23 1020.2
20260906183123 91 280 0.0 2.0 0.00 0.00 0.00 25 1020.2
20260906182623 90 135 1.0 4.0 0.00 0.00 0.00 24 1020.3
20260906182123 89 302 1.0 5.0 0.00 0.00 0.00 24 1020.4
20260906181620 89 318 1.0 5.0 0.00 0.00 0.00 25 1020.5
20260906181120 88 321 1.0 3.0 0.00 0.00 0.00 27 1020.7
20260906180620 88 290 0.0 3.0 0.00 0.00 0.00 27 1020.8
20260906180127 86 70 1.0 5.0 0.00 0.00 0.00 29 1020.9
20260906180120 87 82 1.0 5.0 0.00 0.00 0.00 29 1020.8
20260906175119 86 61 1.0 3.0 0.00 0.00 0.00 29 1021.0
20260906174617 86 86 1.0 3.0 0.00 0.00 0.00 30 1021.1
20260906174116 87 59 1.0 3.0 0.00 0.00 0.00 30 1021.1
20260906173616 87 108 0.0 2.0 0.00 0.00 0.00 30 1021.1
20260906173116 85 99 0.0 3.0 0.00 0.00 0.00 32 1021.2
20260906172616 84 325 1.0 3.0 0.00 0.00 0.00 32 1021.4
20260906172116 84 326 1.0 4.0 0.00 0.00 0.00 32 1021.4
20260906171618 84 47 2.0 4.0 0.00 0.00 0.00 31 1021.4
20260906171117 85 79 1.0 4.0 0.00 0.00 0.00 31 1021.4
20260906170616 84 87 1.0 4.0 0.00 0.00 0.00 33 1021.5
20260906170121 82 300 1.0 3.0 0.00 0.00 0.00 35 1021.5
20260906170117 83 314 1.0 4.0 0.00 0.00 0.00 33 1021.4
20260906165116 80 331 1.0 3.0 0.00 0.00 0.00 36 1021.6
20260906164614 80 28 1.0 4.0 0.00 0.00 0.00 36 1021.7
20260906164116 80 40 1.0 4.0 0.00 0.00 0.00 36 1021.7
20260906163615 80 295 1.0 4.0 0.00 0.00 0.00 37 1021.7
20260906163116 79 326 1.0 4.0 0.00 0.00 0.00 37 1021.6
20260906162616 79 93 1.0 4.0 0.00 0.00 0.00 37 1021.7
20260906162116 78 56 1.0 4.0 0.00 0.00 0.00 37 1021.7
20260906161622 78 311 1.0 6.0 0.00 0.00 0.00 38 1021.6
20260906161616 78 326 2.0 4.0 0.00 0.00 0.00 38 1021.6
20260906161114 78 78 2.0 5.0 0.00 0.00 0.00 37 1021.6
20260906160613 78 14 1.0 5.0 0.00 0.00 0.00 37 1021.6
20260906155613 77 62 2.0 6.0 0.00 0.00 0.00 37 1021.7
20260906155113 77 328 1.0 6.0 0.00 0.00 0.00 36 1021.7
20260906154613 77 354 1.0 4.0 0.00 0.00 0.00 37 1021.6
20260906154112 77 43 1.0 4.0 0.00 0.00 0.00 37 1021.6
20260906153619 77 80 1.0 4.0 0.00 0.00 0.00 38 1021.7
20260906153614 77 304 1.0 4.0 0.00 0.00 0.00 37 1021.6
20260906152612 77 15 1.0 4.0 0.00 0.00 0.00 36 1021.6
20260906152112 77 64 2.0 4.0 0.00 0.00 0.00 36 1021.6
20260906151616 76 304 3.0 8.0 0.00 0.00 0.00 37 1021.6
20260906151610 76 321 2.0 5.0 0.00 0.00 0.00 36 1021.6
20260906150610 76 327 2.0 8.0 0.00 0.00 0.00 37 1021.6
20260906150110 76 326 2.0 5.0 0.00 0.00 0.00 37 1021.6
20260906145611 76 31 2.0 5.0 0.00 0.00 0.00 37 1021.6
20260906145110 76 321 3.0 7.0 0.00 0.00 0.00 37 1021.7
20260906144612 76 333 2.0 7.0 0.00 0.00 0.00 37 1021.6
20260906144110 76 354 2.0 5.0 0.00 0.00 0.00 37 1021.6
20260906143612 76 41 2.0 6.0 0.00 0.00 0.00 37 1021.6
20260906143110 76 336 2.0 7.0 0.00 0.00 0.00 37 1021.5
20260906142612 76 307 2.0 8.0 0.00 0.00 0.00 37 1021.5
20260906142110 76 35 2.0 8.0 0.00 0.00 0.00 36 1021.4
20260906141612 76 78 1.0 5.0 0.00 0.00 0.00 36 1021.5
20260906141113 75 61 1.0 4.0 0.00 0.00 0.00 38 1021.4
20260906140615 74 309 1.0 4.0 0.00 0.00 0.00 38 1021.2
20260906140610 74 16 1.0 4.0 0.00 0.00 0.00 37 1021.4
20260906135611 74 352 0.0 2.0 0.00 0.00 0.00 39 1021.2
20260906135111 73 345 0.0 3.0 0.00 0.00 0.00 39 1021.1
20260906134611 73 304 1.0 3.0 0.00 0.00 0.00 40 1021.2
20260906134109 73 49 1.0 3.0 0.00 0.00 0.00 40 1021.1
20260906133610 72 344 1.0 3.0 0.00 0.00 0.00 40 1021.1
20260906133107 72 27 1.0 6.0 0.00 0.00 0.00 40 1021.0
20260906132610 72 56 2.0 6.0 0.00 0.00 0.00 39 1021.0
20260906132109 71 70 2.0 6.0 0.00 0.00 0.00 39 1021.0
20260906131610 71 82 2.0 5.0 0.00 0.00 0.00 39 1020.9
20260906131109 71 73 1.0 5.0 0.00 0.00 0.00 40 1020.9
20260906130614 70 15 1.0 5.0 0.00 0.00 0.00 41 1020.8
20260906130610 70 319 1.0 5.0 0.00 0.00 0.00 40 1020.9
20260906125608 70 21 1.0 4.0 0.00 0.00 0.00 42 1020.7
20260906125107 70 340 0.0 2.0 0.00 0.00 0.00 42 1020.8
20260906124606 71 328 0.0 3.0 0.00 0.00 0.00 42 1020.8
20260906124107 71 320 0.0 3.0 0.00 0.00 0.00 42 1020.7
20260906123611 71 347 0.0 2.0 0.00 0.00 0.00 41 1020.7
20260906123607 71 356 0.0 3.0 0.00 0.00 0.00 41 1020.7
20260906122606 71 329 0.0 2.0 0.00 0.00 0.00 41 1020.7
20260906122107 71 330 0.0 2.0 0.00 0.00 0.00 41 1020.5
20260906121612 72 327 0.0 1.0 0.00 0.00 0.00 40 1020.4
20260906121606 72 331 0.0 2.0 0.00 0.00 0.00 40 1020.4
20260906120606 72 327 0.0 2.0 0.00 0.00 0.00 39 1020.4
20260906120113 73 316 1.0 3.0 0.00 0.00 0.00 40 1020.4
20260906120107 73 328 1.0 3.0 0.00 0.00 0.00 39 1020.4
20260906115107 73 297 0.0 2.0 0.00 0.00 0.00 39 1020.5
20260906114605 73 326 0.0 1.0 0.00 0.00 0.00 39 1020.5
20260906114109 73 326 0.0 2.0 0.00 0.00 0.00 40 1020.4
20260906114103 73 327 0.0 1.0 0.00 0.00 0.00 39 1020.4
20260906113104 73 326 0.0 2.0 0.00 0.00 0.00 41 1020.4
20260906112605 72 324 0.0 1.0 0.00 0.00 0.00 42 1020.4
20260906112104 72 324 0.0 1.0 0.00 0.00 0.00 42 1020.4
20260906111609 72 61 0.0 1.0 0.00 0.00 0.00 45 1020.4
20260906111604 72 321 0.0 1.0 0.00 0.00 0.00 44 1020.4
20260906110602 72 62 0.0 0.0 0.00 0.00 0.00 45 1020.3
20260906105602 73 62 0.0 1.0 0.00 0.00 0.00 46 1020.4
20260906105103 73 61 0.0 0.0 0.00 0.00 0.00 47 1020.4
20260906104603 73 61 0.0 0.0 0.00 0.00 0.00 47 1020.4
20260906104110 74 61 0.0 1.0 0.00 0.00 0.00 44 1020.3
20260906104102 73 61 0.0 0.0 0.00 0.00 0.00 46 1020.4
20260906103605 74 61 0.0 1.0 0.00 0.00 0.00 45 1020.4
20260906102602 74 29 0.0 1.0 0.00 0.00 0.00 44 1020.3
20260906102102 74 29 0.0 1.0 0.00 0.00 0.00 44 1020.3
20260906101608 74 322 0.0 2.0 0.00 0.00 0.00 43 1020.3
20260906101603 74 322 0.0 2.0 0.00 0.00 0.00 44 1020.4
20260906100602 73 342 0.0 1.0 0.00 0.00 0.00 46 1020.3
20260906095602 72 193 0.0 0.0 0.00 0.00 0.00 51 1020.2
20260906095104 72 193 0.0 0.0 0.00 0.00 0.00 49 1020.3
20260906094600 72 193 0.0 0.0 0.00 0.00 0.00 50 1020.3
20260906094105 72 193 0.0 0.0 0.00 0.00 0.00 52 1020.1
20260906094059 72 193 0.0 0.0 0.00 0.00 0.00 53 1020.2
20260906093727 72 193 0.0 0.0 0.00 0.00 0.00 51 1020.1
20260906092601 72 193 0.0 0.0 0.00 0.00 0.00 51 1020.1
20260906092103 72 193 0.0 0.0 0.00 0.00 0.00 51 1020.0
20260906092057 72 193 0.0 0.0 0.00 0.00 0.00 51 1020.0
20260906091059 72 193 0.0 0.0 0.00 0.00 0.00 51 1019.8
20260906090602 73 193 0.0 0.0 0.00 0.00 0.00 50 1019.7
20260906090104 73 193 0.0 0.0 0.00 0.00 0.00 50 1019.8
20260906090100 73 193 0.0 0.0 0.00 0.00 0.00 50 1019.8
20260906085724 73 193 0.0 0.0 0.00 0.00 0.00 50 1019.8
20260906084558 73 193 0.0 0.0 0.00 0.00 0.00 50 1019.8
20260906084058 73 193 0.0 0.0 0.00 0.00 0.00 50 1019.8
20260906083600 73 193 0.0 0.0 0.00 0.00 0.00 49 1019.8
20260906083555 73 193 0.0 0.0 0.00 0.00 0.00 50 1019.8
20260906083220 73 193 0.0 1.0 0.00 0.00 0.00 49 1020.0
20260906082101 72 193 0.0 0.0 0.00 0.00 0.00 49 1020.0
20260906082057 73 193 0.0 1.0 0.00 0.00 0.00 49 1020.0
20260906081720 72 193 0.0 0.0 0.00 0.00 0.00 49 1020.1
20260906080553 72 193 0.0 0.0 0.00 0.00 0.00 49 1020.1
20260906080052 72 193 0.0 0.0 0.00 0.00 0.00 49 1020.2
20260906075553 71 193 0.0 0.0 0.00 0.00 0.00 49 1020.3
20260906075051 71 193 0.0 0.0 0.00 0.00 0.00 49 1020.3
20260906074549 71 193 0.0 0.0 0.00 0.00 0.00 48 1020.3
20260906074052 71 193 0.0 0.0 0.00 0.00 0.00 46 1020.3
20260906074047 71 193 0.0 0.0 0.00 0.00 0.00 47 1020.3
20260906073046 72 193 0.0 0.0 0.00 0.00 0.00 45 1020.3
20260906072545 72 193 0.0 0.0 0.00 0.00 0.00 44 1020.2
20260906072042 72 193 0.0 1.0 0.00 0.00 0.00 43 1020.3
20260906071547 73 255 0.0 0.0 0.00 0.00 0.00 42 1020.3
20260906071541 72 193 0.0 1.0 0.00 0.00 0.00 43 1020.3
20260906071039 72 255 0.0 0.0 0.00 0.00 0.00 44 1020.3
20260906070037 73 255 0.0 0.0 0.00 0.00 0.00 41 1020.2
20260906065538 73 255 0.0 0.0 0.00 0.00 0.00 41 1020.3
20260906065036 73 255 0.0 0.0 0.00 0.00 0.00 41 1020.4
20260906064537 74 255 0.0 0.0 0.00 0.00 0.00 41 1020.4
20260906064036 74 255 0.0 0.0 0.00 0.00 0.00 38 1020.3
20260906063536 74 255 0.0 0.0 0.00 0.00 0.00 39 1020.2
20260906063035 74 255 0.0 1.0 0.00 0.00 0.00 39 1020.3
20260906062536 74 255 0.0 1.0 0.00 0.00 0.00 40 1020.3
20260906062043 75 158 0.0 0.0 0.00 0.00 0.00 39 1020.3
20260906062036 74 158 0.0 0.0 0.00 0.00 0.00 39 1020.3
20260906061036 74 158 0.0 0.0 0.00 0.00 0.00 39 1020.2
20260906060536 75 158 0.0 0.0 0.00 0.00 0.00 39 1020.2
20260906060036 76 158 0.0 1.0 0.00 0.00 0.00 40 1020.1
20260906055535 76 158 0.0 1.0 0.00 0.00 0.00 40 1020.1
20260906055036 76 158 0.0 0.0 0.00 0.00 0.00 40 1020.1
20260906054535 76 158 0.0 0.0 0.00 0.00 0.00 40 1020.1
20260906054037 76 162 0.0 0.0 0.00 0.00 0.00 40 1020.1
20260906053535 77 162 0.0 0.0 0.00 0.00 0.00 39 1020.0
20260906053032 77 162 0.0 0.0 0.00 0.00 0.00 37 1020.1
20260906052535 77 162 0.0 0.0 0.00 0.00 0.00 37 1020.0
20260906052033 77 162 0.0 0.0 0.00 0.00 0.00 37 1020.1
20260906051538 78 162 0.0 1.0 0.00 0.00 0.00 35 1019.8
20260906051533 77 162 0.0 0.0 0.00 0.00 0.00 38 1020.0
20260906050534 78 162 0.0 1.0 0.00 0.00 0.00 36 1019.8
20260906050034 79 162 0.0 1.0 0.00 0.00 0.00 35 1019.8
20260906045533 79 69 0.0 0.0 0.00 0.00 0.00 34 1019.8
20260906045034 80 69 0.0 2.0 0.00 0.00 0.00 33 1019.7
20260906044534 80 68 0.0 2.0 0.00 0.00 0.00 33 1019.7
20260906044030 80 22 0.0 2.0 0.00 0.00 0.00 33 1019.7
20260906043531 80 18 1.0 3.0 0.00 0.00 0.00 33 1019.7
20260906043031 81 75 1.0 3.0 0.00 0.00 0.00 33 1019.7
20260906042530 81 53 0.0 2.0 0.00 0.00 0.00 33 1019.7
20260906042032 81 31 0.0 1.0 0.00 0.00 0.00 33 1019.7
20260906041531 81 31 0.0 1.0 0.00 0.00 0.00 32 1019.7
20260906041032 80 31 0.0 1.0 0.00 0.00 0.00 32 1019.7
20260906040531 80 31 0.0 1.0 0.00 0.00 0.00 32 1019.7
20260906040030 81 21 0.0 1.0 0.00 0.00 0.00 31 1019.7
20260906035531 81 21 0.0 1.0 0.00 0.00 0.00 31 1019.7
20260906035028 81 21 0.0 1.0 0.00 0.00 0.00 31 1019.7
20260906034528 82 332 0.0 1.0 0.00 0.00 0.00 31 1019.7
20260906034026 82 332 0.0 1.0 0.00 0.00 0.00 30 1019.7
20260906033525 82 349 0.0 3.0 0.00 0.00 0.00 30 1019.6
20260906033024 83 340 1.0 3.0 0.00 0.00 0.00 29 1019.5
20260906032524 83 4 1.0 5.0 0.00 0.00 0.00 29 1019.5
20260906032025 83 321 1.0 5.0 0.00 0.00 0.00 29 1019.3
20260906031522 83 316 1.0 4.0 0.00 0.00 0.00 30 1019.1
20260906031022 83 340 1.0 4.0 0.00 0.00 0.00 30 1019.1
20260906030521 83 320 1.0 3.0 0.00 0.00 0.00 30 1019.0
20260906030023 84 313 1.0 3.0 0.00 0.00 0.00 30 1019.0
20260906025526 84 319 1.0 5.0 0.00 0.00 0.00 31 1018.8
20260906025521 84 12 1.0 4.0 0.00 0.00 0.00 31 1018.8
20260906024521 83 309 1.0 5.0 0.00 0.00 0.00 32 1018.8
20260906024021 83 327 1.0 3.0 0.00 0.00 0.00 33 1018.8
20260906023520 83 309 0.0 2.0 0.00 0.00 0.00 34 1018.7
20260906023018 82 290 0.0 1.0 0.00 0.00 0.00 35 1018.6
20260906022522 82 290 0.0 0.0 0.00 0.00 0.00 34 1018.4
20260906022516 82 290 0.0 0.0 0.00 0.00 0.00 36 1018.4
20260906021518 83 290 0.0 0.0 0.00 0.00 0.00 34 1018.3
20260906021017 83 290 0.0 0.0 0.00 0.00 0.00 33 1018.3
20260906020517 84 290 0.0 0.0 0.00 0.00 0.00 33 1018.3
20260906020017 84 290 0.0 1.0 0.00 0.00 0.00 32 1018.2
20260906015520 85 290 0.0 1.0 0.00 0.00 0.00 31 1018.2
20260906015515 85 290 0.0 1.0 0.00 0.00 0.00 32 1018.3
20260906014517 85 290 0.0 2.0 0.00 0.00 0.00 31 1018.2
20260906014016 86 290 1.0 3.0 0.00 0.00 0.00 31 1018.2
20260906013515 86 289 1.0 3.0 0.00 0.00 0.00 30 1018.2
20260906013020 87 293 0.0 3.0 0.00 0.00 0.00 30 1018.2
20260906013014 86 303 0.0 3.0 0.00 0.00 0.00 30 1018.2
20260906012012 87 310 0.0 3.0 0.00 0.00 0.00 30 1018.2
20260906011515 87 307 1.0 5.0 0.00 0.00 0.00 29 1018.2
20260906011014 87 300 2.0 5.0 0.00 0.00 0.00 29 1018.2
20260906010512 87 279 2.0 5.0 0.00 0.00 0.00 29 1018.2
20260906010013 87 311 1.0 4.0 0.00 0.00 0.00 29 1018.2
20260906005514 87 322 0.0 4.0 0.00 0.00 0.00 30 1018.2
20260906005011 87 329 0.0 4.0 0.00 0.00 0.00 30 1018.2
20260906004512 88 278 0.0 3.0 0.00 0.00 0.00 29 1018.2
20260906004013 88 283 1.0 4.0 0.00 0.00 0.00 29 1018.2
20260906003515 89 271 0.0 3.0 0.00 0.00 0.00 29 1018.3
20260906003510 88 194 1.0 4.0 0.00 0.00 0.00 29 1018.2
20260906002508 89 235 0.0 1.0 0.00 0.00 0.00 28 1018.2
20260906002010 89 235 0.0 1.0 0.00 0.00 0.00 28 1018.2
20260906001508 89 253 0.0 4.0 0.00 0.00 0.00 28 1018.1
20260906001006 90 240 0.0 4.0 0.00 0.00 0.00 27 1018.1
20260906000506 90 304 2.0 8.0 0.00 0.00 0.00 27 1018.2
20260906000005 90 335 2.0 8.0 0.00 0.00 0.00 26 1018.1
20260905235506 91 276 1.0 6.0 0.00 0.00 0.00 26 1018.2
20260905235005 91 274 1.0 5.0 0.00 0.00 0.00 26 1018.2